sat.trackr.live / text

‹ back to catalog

STARLINK-11627 [DTC]

NORAD 63107 · 2025-039D

PAYLOAD ACTIVE UNKNOWN

§ Identity

Operator
Country
US
Launch date
2025-02-27
Launch site
AFETR
Launch vehicle
Mass (kg)
RCS (m²)

Purposes: comms

External: N2YO · Heavens-Above · Gunter

§ Orbital elements

Epoch: 2026-05-24T23:19:39.453888Z

Period
91.67 min
Inclination
43.0016°
Eccentricity
0.0001761
Mean motion
15.70918875 rev/d
Perigee alt
355.1 km
Apogee alt
357.5 km
Semi-major
6,734.4 km
B*
1.3458e-3
RAAN
136.9563°
Arg perigee
247.0092°
Mean anomaly
113.0590°
Rev number
7,161

§ Raw data

STARLINK-11627 [DTC]1 63107U 25039D   26144.97198442  .00176535  00000+0  13458-2 0  99962 63107  43.0016 136.9563 0001761 247.0092 113.0590 15.70918875 71610

JSON: /api/v1/satellites/63107 · /tle

For live sub-satellite position, see the globe view (requires WebGL).

§ Visibility from observer

Set your observer location to see the next 7 days of passes ≥ 10°. The values pass through the URL so the page stays shareable.

No JS? Fill the form by hand. The geolocation button needs JavaScript.